Regional Weather Roundup
Issued by NWS Nashville, TN

Home | Current Version | Previous Version | Text Only | Print | Product List | Glossary On
Versions: 1 2 3 4 5 6 7 8 9 10 11 12 13 14 15 16 17 18 19 20 21 22 23 24 25 26 27 28 29 30 31 32 33 34 35 36 37 38 39 40 41 42 43 44 45 46 47 48
000
ASUS44 KOHX 031310
RWROHX
MIDDLE TENNESSEE HOURLY WEATHER ROUNDUP
NATIONAL WEATHER SERVICE NASHVILLE TN
800 AM CDT THU SEP 03 2015

NOTE: "FAIR" INDICATES FEW OR NO CLOUDS BELOW 12,000 FEET WITH
NO SIGNIFICANT WEATHER AND/OR OBSTRUCTIONS TO VISIBILITY.

* THESE REPORTS ARE NOT UNDER NWS QUALITY CONTROL AND MAY NOT
  REPORT WEATHER SUCH AS PRECIPITATION AND FOG.


TNZ005>011-023>034-057-059-062>066-078-080-031400
...NORTHERN MIDDLE TENNESSEE...

CITY           SKY/WX    TMP DP  RH WIND       PRES   REMARKS
CLARKSVILLE    SUNNY     74  68  81 CALM      30.05R
CROSSVILLE     PTSUNNY   73  67  81 CALM      30.11R
DICKSON        SUNNY     73  70  88 CALM      30.05R
NASHVILLE      MOSUNNY   78  71  79 CALM      30.05R
SMYRNA         SUNNY     74  74 100 CALM      30.06R
$$
TNZ056-058-060-061-075>077-079-093>097-031400
...SOUTHERN MIDDLE TENNESSEE...

CITY           SKY/WX    TMP DP  RH WIND       PRES   REMARKS
COLUMBIA       SUNNY     75  75 100 CALM      30.04R
LEWISBURG      SUNNY     72  69  90 CALM      30.05R
MCMINNVILLE    SUNNY     72  72 100 CALM      30.07R
SHELBYVILLE    SUNNY     72  72 100 CALM      30.07R
TULLAHOMA      SUNNY     75  70  83 CALM      30.08R
WINCHESTER     MOSUNNY   72  70  94 CALM      30.07R
$$


...KEY TO REMARKS...
VSB - VISIBILITY IN MILES
WCI - WIND CHILL INDEX
HX  - HEAT INDEX



USA.gov is the U.S. government's official web portal to all federal, state and local government web resources and services.